FWO584 Weather Reports


time (UTC)temp
F
wind
direction
speed
knots
gust
knots
rain 1hr
in
rain 24hr
in
rain mn
in
humidity
%
barometer
mb
20260504213405 60 229 0.9 6.1 0.00 0.16 0.16 87 1010.4
20260504210904 60 209 1.7 4.3 0.00 0.16 0.16 86 1010.6
20260504210405 60 179 1.7 5.2 0.00 0.16 0.16 86 1010.6
20260504203904 60 182 3.5 7.8 0.00 0.16 0.16 86 1010.5
20260504203405 60 174 1.7 6.1 0.00 0.16 0.16 86 1010.4
20260504200905 61 179 4.3 8.7 0.00 0.16 0.16 86 1010.1
20260504200404 61 174 5.2 8.7 0.00 0.16 0.16 86 1010.0
20260504193905 61 190 4.3 7.0 0.00 0.16 0.16 86 1009.8
20260504193404 61 192 4.3 8.7 0.00 0.16 0.16 86 1009.8
20260504190904 61 192 4.3 8.7 0.00 0.16 0.16 86 1009.4
20260504190405 61 190 4.3 7.8 0.01 0.16 0.16 86 1009.5
20260504183904 62 202 1.7 2.6 0.02 0.16 0.16 86 1009.0
20260504183405 62 118 0.0 2.6 0.03 0.16 0.16 86 1009.0
20260504180904 62 198 1.7 4.3 0.03 0.16 0.16 86 1009.1
20260504180404 62 275 0.0 4.3 0.03 0.15 0.15 86 1009.1
20260504173905 62 171 4.3 7.8 0.02 0.14 0.14 86 1009.2
20260504173405 62 160 2.6 10.4 0.02 0.13 0.13 86 1009.4
20260504170905 63 173 0.0 0.9 0.06 0.13 0.13 86 1009.4
20260504170406 63 136 1.7 7.0 0.06 0.12 0.12 86 1009.5
20260504160401 63 199 2.6 12.2 0.04 0.05 0.05 85 1010.0
20260504150901 64 186 6.1 13.0 0.01 0.01 0.01 85 1009.8
20260504140901 65 166 6.1 10.4 0.00 0.00 0.00 82 1010.2
20260504140401 65 159 8.7 15.6 0.00 0.00 0.00 81 1010.2
20260504130400 69 144 11.3 21.7 0.00 0.00 0.00 66 1010.1
20260504110401 67 154 10.4 18.2 0.00 0.00 0.00 73 1010.7
20260504080900 70 210 4.3 7.8 0.00 0.00 0.00 65 1010.9
20260504080401 70 194 4.3 11.3 0.00 0.00 0.00 66 1010.9